This demonstration page uses our WeatherBlox Daily Observations layout. Learn more.

Left ArrowRight Arrow

41.12389, -100.76542

Hourly Observations for July 6, 2018

Temp ( °F °C ) Dew Point ( °F °C ) Humidity (%) Winds ( mph kmh ) Pressure ( in mb ) Visibility ( mi km ) Precip ( " mm )
12:53 am 00:53 Clear 66 18.9 66 18.9 100 100 SE 5 7 30.41 1030 7 11 0.00 0.00
1:53 am 01:53 Clear with Mist and Fog 66 18.9 66 18.9 100 100 Calm 30.40 1029 4 6 0.00 0.00
1:57 am 01:57 Clear with Mist and Fog 64 17.8 64 17.8 100 100 Calm 30.39 1029 1 2 0.00 0.00
2:04 am 02:04 Clear with Fog 65 18.3 65 18.3 100 100 Calm 30.36 1028 1 1 0.00 0.00
2:07 am 02:07 Mostly Cloudy with Fog 65 18.3 65 18.3 100 100 SE 3 6 30.36 1028 0 0 0.00 0.00
2:26 am 02:26 Mostly Cloudy with Mist and Fog 64 17.8 64 17.8 100 100 E 3 6 30.39 1029 1 1 0.00 0.00
2:50 am 02:50 Mostly Cloudy with Fog 63 17 63 17 100 100 Calm 30.39 1029 0 0 0.00 0.00
2:53 am 02:53 Mostly Cloudy with Fog 63 17.2 63 17.2 100 100 Calm 30.39 1029 0 0 0.00 0.00
3:53 am 03:53 Mostly Cloudy with Fog 67 19.4 67 19.4 100 100 Calm 30.38 1029 5 8 0.00 0.00
4:53 am 04:53 Mostly Cloudy with Fog 67 19.4 64 17.8 91 91 Calm 30.38 1029 5 8 0.00 0.00
5:22 am 05:22 Mostly Cloudy with Fog 66 18.9 64 17.8 93 93 Calm 30.36 1028 0 0 0.00 0.00
5:30 am 05:30 Mostly Cloudy with Fog 66 18.9 64 17.8 93 93 Calm 30.36 1028 0 0 0.00 0.00
5:40 am 05:40 Mostly Cloudy with Mist and Fog 66 18.9 64 17.8 93 93 Calm 30.36 1028 1 1 0.00 0.00
5:44 am 05:44 Cloudy with Mist and Fog 66 18.9 64 17.8 93 93 Calm 30.36 1028 2 2 0.00 0.00
5:53 am 05:53 Cloudy with Mist and Fog 67 19.4 64 17.8 91 91 Calm 30.38 1029 2 3 0.00 0.00
6:13 am 06:13 Partly Cloudy with Mist and Fog 68 20 65 18.3 90 90 E 5 7 30.36 1028 2 3 0.00 0.00
6:22 am 06:22 Partly Cloudy with Mist and Fog 69 20.6 65 18.3 87 87 SE 3 6 30.36 1028 2 2 0.00 0.00
6:35 am 06:35 Partly Cloudy with Mist and Fog 66 18.9 64 17.8 93 93 ESE 5 7 30.36 1028 1 2 0.00 0.00
6:44 am 06:44 Mostly Cloudy with Mist and Fog 66 18.9 64 17.8 93 93 SE 5 7 30.36 1028 1 1 0.00 0.00
6:53 am 06:53 Mostly Cloudy with Fog 67 19.4 65 18.3 93 93 SSE 3 6 30.39 1029 0 0 0.00 0.00
7:10 am 07:10 Cloudy with Mist and Fog 68 20 67 19.4 96 96 Calm 30.36 1028 1 2 0.00 0.00
7:15 am 07:15 Cloudy with Mist and Fog 69 20.6 68 20 96 96 S 3 6 30.36 1028 2 3 0.00 0.00
7:29 am 07:29 Cloudy with Mist and Fog 71 21.7 68 20 90 90 SSE 5 7 30.33 1027 3 5 0.00 0.00
7:53 am 07:53 Cloudy with Mist and Fog 72 22.2 70 21.1 94 94 SSE 7 11 30.39 1029 3 5 0.00 0.00
8:20 am 08:20 Cloudy with Mist and Fog 74 23.3 71 21.7 91 91 VRB 5 7 30.33 1027 6 10 0.00 0.00
8:27 am 08:27 Cloudy with Mist and Fog 74 23.3 71 21.7 91 91 SSE 5 7 30.33 1027 6 10 0.00 0.00
8:35 am 08:35 Cloudy 74 23.3 71 21.7 91 91 S 6 9 30.33 1027 7 11 0.00 0.00
8:53 am 08:53 Mostly Cloudy 73 22.8 70 21.1 90 90 S 7 11 30.39 1029 10 16 0.00 0.00
8:59 am 08:59 Mostly Cloudy 72 22.2 69 20.6 91 91 S 7 11 30.33 1027 10 16 0.00 0.00
9:53 am 09:53 Cloudy 74 23.3 69 20.6 85 85 S 6 9 30.40 1029 10 16 0.00 0.00
10:53 am 10:53 Cloudy 75 23.9 69 20.6 82 82 S 6 9 30.40 1029 10 16 0.00 0.00
11:35 am 11:35 Cloudy 78 25.6 70 21.1 76 76 S 7 11 30.30 1026 10 16 0.00 0.00
11:42 am 11:42 Cloudy 78 25.6 69 20.6 74 74 SSW 10 17 30.30 1026 10 16 0.00 0.00
11:53 am 11:53 Cloudy 78 25.6 70 21.1 76 76 SSW 10 17 30.38 1029 10 16 0.00 0.00
12:15 pm 12:15 Cloudy 77 25 69 20.6 77 77 S 9 15 30.30 1026 10 16 0.00 0.00
12:22 pm 12:22 Cloudy 78 25.6 70 21.1 76 76 SSW 9 15 30.30 1026 10 16 0.00 0.00
12:38 pm 12:38 Cloudy 78 25.6 70 21.1 76 76 S 9 15 30.30 1026 10 16 0.00 0.00
12:46 pm 12:46 Cloudy 79 26.1 71 21.7 77 77 S 7 11 30.30 1026 10 16 0.00 0.00
12:53 pm 12:53 Cloudy 79 26.1 70 21.1 74 74 S 8 13 30.38 1029 10 16 0.00 0.00
1:53 pm 13:53 Partly Cloudy 82 27.8 70 21.1 67 67 SSE 6 9 30.34 1027 10 16 0.00 0.00
2:53 pm 14:53 Partly Cloudy 84 28.9 70 21.1 63 63 SSE 8 13 30.30 1026 10 16 0.00 0.00
3:53 pm 15:53 Mostly Sunny 86 30 70 21.1 59 59 S 8 13 30.26 1025 10 16 0.00 0.00
4:53 pm 16:53 Partly Cloudy 86 30 69 20.6 57 57 SSE 14 22 30.24 1024 10 16 0.00 0.00
5:53 pm 17:53 Mostly Sunny 86 30 70 21.1 59 59 S 12 19 30.21 1023 10 16 0.00 0.00
6:53 pm 18:53 Partly Cloudy 83 28.3 71 21.7 67 67 SE 12 19 30.19 1023 10 16 0.00 0.00
7:53 pm 19:53 Sunny 81 27.2 72 22.2 74 74 SE 12 19 30.19 1022 10 16 0.00 0.00
8:53 pm 20:53 Sunny 78 25.6 72 22.2 82 82 SE 8 13 30.20 1023 10 16 0.00 0.00
9:53 pm 21:53 Clear 73 22.8 71 21.7 94 94 SE 8 13 30.20 1023 10 16 0.00 0.00
10:53 pm 22:53 Clear 74 23.3 71 21.7 91 91 SSE 8 13 30.22 1023 10 16 0.00 0.00
11:53 pm 23:53 Clear 73 22.8 71 21.7 94 94 SSE 8 13 30.21 1023 10 16 0.00 0.00

Powered by AerisWeather